SCP
0 0 0 0 0 0 0 0 0 0 0 0 0 0 0 0 0 0 0 0 0 0 0 0 0 0 0 0 0 0 0 0
0 0 0 0 0 0 0 0 0 0 0 0 0 0 0 0 0 0 0 0 0 0 0 0 0 0 0 0 0 0 0 0
0 0 0 0 0 0 0 0 0 0 0 0 0 0 0 0 0 0 0 0 0 0 0 0 0 0 0 0 0 0 0 0
0 0 0 0 0 0 0 0 0 0 0 0 0 0 0 0 0 0 0 0 0 0 0 0 0 0 0 0 0 0 0 0
0 0 0 0 0 0 0 0 0 0 0 0 0 0 0 0 0 0 0 0 0 0 0 0 0 0 0 0 0 0 0 -0
0 0 0 0 0 0 0 0 0 0 0 0 0 0 0 0 0 0 0 0 0 0 0 0 0 0 0 0 0 0 0 0
0 0 0 0 0 0 0 0 0 0 0 0 0 0 0 0 0 0 0 0 0 0 0 0 0 0 0 0 0 0 0 0
0 0 0 0 0 0 0 0 0 0 0 0 0 0 0 0 0 0 0 0 0 0 0 0 0 0 0 0 0 0 0 0
0 0 0 0 0 0 0 0 0 0 0 0 0 0 0 0 0 0 0 0 0 0 0 0 0 0 0 0 0 0 0 0
0 0 0 0 0 0 0 0 0 0 0 0 0 0 0 0 0 0 0 0 0 0 0 0 0 0 0 0 0 0 0 0
0 0 0 0 0 0 0 0 0 0 0 0 0 0 0 0 0 0 0 0 0 0 0 0 0 0 0 0 0 0 0 0
0 0 0 0 0 0 0 0 0 0 0 0 0 0 0 0 0 0 0 0 0 0 0 0 0 0 0 0 0 0 0 0
0 0 0 0 0 0 0 0 0 0 0 0 0 0 0 0 0 0 0 0 0 0 0 0 0 0 0 0 0 0 0 0
0 0 0 0 0 0 0 0 0 0 0 0 0 0 0 0 0 0 0 0 0 0 0 0 0 0 0 0 0 0 0 0
0 0 0 0 0 0 0 0 0 0 0 0 0 0 0 0 0 0 0 0 0 0 0 0 0 0 0 0 0 0 0 0
0 0 0 0 0 0 0 0 0 0 0 0 0 0 0 0 0 0 0 0 0 0 0 0 0 0 0 0 0 0 0 0
0 0 0 0 0 0 0 0 0 0 0 0 0 0 0 0 0 0 0 0 0 0 0 0 0 0 0 0 0 0 0 0
0 0 0 0 0 0 0 0 0 0 0 0 0 0 0 0 0 0 0 0 0 0 0 0 0 0 0 0 0 0 0 0
0 0 0 0 0 0 0 0 0 0 0 0 0 0 0 0 0 0 0 0 0 0 0 0 0 0 0 0 0 0 0 0
0 0 0 0 0 0 0 0 0 0 0 0 0 0 0 0 0 0 0 0 0 0 0 0 0 0 0 0 0 0 0 0
Wind_Speed_500mb
17 18 17 16 13 10 8 6 4 1 4 8 12 14 16 19 22 24 25 25 26 27 26 25 26 27 28 29 31 34 38 43
22 23 23 19 16 15 13 10 7 3 1 7 12 18 23 25 27 27 24 22 19 18 19 21 23 25 29 33 38 44 48 51
27 28 28 26 23 20 17 12 9 6 4 7 12 17 20 22 23 22 22 21 18 19 21 23 27 31 37 41 45 51 56 59
31 32 31 32 30 25 20 15 10 6 6 11 15 18 20 20 19 15 14 15 17 19 22 26 29 35 39 46 52 56 60 62
38 38 39 38 34 30 24 18 12 9 8 11 16 19 18 15 13 14 14 15 17 20 23 27 31 37 44 50 55 59 61 64
47 47 45 43 40 34 29 22 15 13 15 13 10 17 17 12 11 11 12 15 18 21 26 30 33 43 50 54 56 58 61 63
53 53 53 49 44 37 30 23 17 17 9 10 12 15 8 7 9 12 14 16 20 25 31 34 36 44 49 55 59 59 62 67
67 64 58 52 43 37 31 24 16 12 10 9 10 9 4 6 9 14 18 20 24 27 30 33 36 41 45 47 51 54 58 62
69 60 58 52 44 38 30 20 16 13 10 8 6 1 4 8 13 16 19 23 25 28 31 33 37 44 49 51 50 50 52 54
63 60 54 49 41 32 25 22 14 11 12 8 5 4 6 9 13 16 18 22 25 28 33 36 38 43 50 55 55 55 56 57
63 62 52 45 39 32 26 19 13 15 11 6 5 5 9 13 16 19 22 24 26 27 32 37 40 44 50 55 58 59 62 61
51 50 45 39 34 30 25 17 18 15 9 6 6 9 11 15 18 22 25 27 29 30 32 35 39 44 48 52 54 56 61 62
48 47 43 38 33 27 23 24 19 13 9 5 6 10 13 15 17 20 23 24 27 29 32 35 39 43 47 51 50 51 56 58
47 46 43 37 31 28 26 24 18 12 6 3 5 8 12 15 19 20 22 25 27 29 35 40 41 43 51 54 55 54 57 54
44 41 40 35 32 32 27 21 16 11 6 4 7 10 14 17 20 23 25 27 30 32 34 41 43 47 55 59 56 55 55 57
43 39 35 38 35 30 26 21 15 9 6 4 6 10 14 16 19 22 25 27 30 32 33 41 43 44 44 49 53 55 55 56
43 42 41 36 33 28 22 18 13 9 4 3 7 10 14 17 19 19 21 24 27 28 32 37 38 39 44 46 48 50 52 51
43 40 37 33 28 24 19 14 9 4 1 4 8 11 13 16 18 19 21 23 27 31 35 37 40 44 44 45 44 46 48 48
39 36 32 28 23 18 14 9 6 3 4 7 11 14 18 20 22 23 24 25 27 30 34 36 38 41 44 46 44 42 44 49
37 33 28 22 17 13 11 9 7 6 7 10 14 17 20 22 25 27 28 30 31 31 32 35 33 37 42 45 49 52 52 52
Wind_Direction_500mb
204 212 211 209 205 200 191 179 168 96 9 357 347 339 333 327 323 321 321 322 323 326 327 330 334 337 337 339 335 335 334 330
213 217 217 214 210 206 204 197 187 179 351 349 342 335 330 327 324 320 318 315 318 329 337 345 353 354 351 350 345 344 342 341
217 219 219 219 218 216 215 212 214 229 297 333 333 327 323 321 321 321 321 326 335 349 359 358 359 357 354 350 349 345 342 339
216 218 217 219 221 222 223 225 231 259 318 328 326 326 323 323 320 322 331 339 356 4 5 4 360 358 353 349 347 344 341 339
217 216 218 220 221 224 225 223 235 266 302 319 322 320 319 327 333 342 350 5 12 12 9 6 0 353 348 346 345 343 342 340
216 215 218 219 221 223 226 234 240 274 287 296 310 318 314 330 338 353 4 6 10 12 9 5 355 351 348 347 346 344 342 342
217 217 216 218 219 223 230 235 242 257 279 319 324 304 313 326 359 5 11 13 11 11 8 3 357 353 352 350 349 348 347 344
218 217 216 218 219 222 226 225 222 245 252 253 258 264 298 4 14 12 10 18 12 11 6 1 353 348 346 348 349 350 348 345
214 212 213 213 213 216 216 220 228 235 244 226 221 227 45 25 17 14 8 11 7 2 0 357 352 349 349 348 348 349 347 346
208 210 209 207 208 208 207 218 209 206 222 200 163 96 52 31 16 7 4 6 1 358 355 354 352 350 352 350 348 349 348 347
202 208 204 201 202 207 209 209 209 212 195 163 130 75 31 16 9 2 357 358 356 354 356 356 355 356 358 356 349 347 347 347
204 199 196 199 203 204 198 187 200 187 165 118 63 34 20 10 1 356 355 356 356 354 356 355 354 354 358 359 352 350 346 345
190 186 187 188 186 183 180 179 179 168 148 110 52 25 11 0 357 354 355 356 356 354 351 353 354 350 352 353 354 350 347 345
184 183 181 179 176 169 178 172 166 159 142 98 42 20 10 2 358 357 358 354 352 352 345 346 351 344 343 346 347 347 347 345
177 175 173 167 169 173 169 164 163 165 149 82 37 20 7 1 356 353 353 352 352 347 344 342 346 346 346 345 347 347 347 346
175 172 168 169 165 164 168 166 164 157 135 82 31 8 359 355 354 353 351 351 351 346 343 339 346 349 348 348 348 347 348 344
169 170 168 163 164 163 162 166 161 149 122 29 6 356 350 350 351 353 350 346 344 340 341 338 340 340 343 346 347 345 344 344
168 166 166 163 162 165 164 158 161 164 352 344 341 338 336 338 340 342 342 341 338 336 336 336 337 336 339 346 347 344 342 348
167 165 165 166 165 163 162 173 191 219 292 321 328 331 334 336 336 336 336 336 336 335 335 336 335 335 339 342 343 342 349 353
167 168 169 168 168 173 188 202 220 257 292 315 324 326 329 331 333 334 335 335 333 332 333 334 337 339 339 340 343 348 350 351
Wind_Speed_850mb
17 18 17 16 13 10 8 6 4 1 4 8 12 14 16 19 22 24 25 25 26 27 26 25 26 27 28 29 31 34 38 43
22 23 23 19 16 15 13 10 7 3 1 7 12 18 23 25 27 27 24 22 19 18 19 21 23 25 29 33 38 44 48 51
27 28 28 26 23 20 17 12 9 6 4 7 12 17 20 22 23 22 22 21 18 19 21 23 27 31 37 41 45 51 56 59
31 32 31 32 30 25 20 15 10 6 6 11 15 18 20 20 19 15 14 15 17 19 22 26 29 35 39 46 52 56 60 62
38 38 39 38 34 30 24 18 12 9 8 11 16 19 18 15 13 14 14 15 17 20 23 27 31 37 44 50 55 59 61 64
47 47 45 43 40 34 29 22 15 13 15 13 10 17 17 12 11 11 12 15 18 21 26 30 33 43 50 54 56 58 61 63
53 53 53 49 44 37 30 23 17 17 9 10 12 15 8 7 9 12 14 16 20 25 31 34 36 44 49 55 59 59 62 67
67 64 58 52 43 37 31 24 16 12 10 9 10 9 4 6 9 14 18 20 24 27 30 33 36 41 45 47 51 54 58 62
69 60 58 52 44 38 30 20 16 13 10 8 6 1 4 8 13 16 19 23 25 28 31 33 37 44 49 51 50 50 52 54
63 60 54 49 41 32 25 22 14 11 12 8 5 4 6 9 13 16 18 22 25 28 33 36 38 43 50 55 55 55 56 57
63 62 52 45 39 32 26 19 13 15 11 6 5 5 9 13 16 19 22 24 26 27 32 37 40 44 50 55 58 59 62 61
51 50 45 39 34 30 25 17 18 15 9 6 6 9 11 15 18 22 25 27 29 30 32 35 39 44 48 52 54 56 61 62
48 47 43 38 33 27 23 24 19 13 9 5 6 10 13 15 17 20 23 24 27 29 32 35 39 43 47 51 50 51 56 58
47 46 43 37 31 28 26 24 18 12 6 3 5 8 12 15 19 20 22 25 27 29 35 40 41 43 51 54 55 54 57 54
44 41 40 35 32 32 27 21 16 11 6 4 7 10 14 17 20 23 25 27 30 32 34 41 43 47 55 59 56 55 55 57
43 39 35 38 35 30 26 21 15 9 6 4 6 10 14 16 19 22 25 27 30 32 33 41 43 44 44 49 53 55 55 56
43 42 41 36 33 28 22 18 13 9 4 3 7 10 14 17 19 19 21 24 27 28 32 37 38 39 44 46 48 50 52 51
43 40 37 33 28 24 19 14 9 4 1 4 8 11 13 16 18 19 21 23 27 31 35 37 40 44 44 45 44 46 48 48
39 36 32 28 23 18 14 9 6 3 4 7 11 14 18 20 22 23 24 25 27 30 34 36 38 41 44 46 44 42 44 49
37 33 28 22 17 13 11 9 7 6 7 10 14 17 20 22 25 27 28 30 31 31 32 35 33 37 42 45 49 52 52 52
Wind_Direction_850mb
204 212 211 209 205 200 191 179 168 96 9 357 347 339 333 327 323 321 321 322 323 326 327 330 334 337 337 339 335 335 334 330
213 217 217 214 210 206 204 197 187 179 351 349 342 335 330 327 324 320 318 315 318 329 337 345 353 354 351 350 345 344 342 341
217 219 219 219 218 216 215 212 214 229 297 333 333 327 323 321 321 321 321 326 335 349 359 358 359 357 354 350 349 345 342 339
216 218 217 219 221 222 223 225 231 259 318 328 326 326 323 323 320 322 331 339 356 4 5 4 360 358 353 349 347 344 341 339
217 216 218 220 221 224 225 223 235 266 302 319 322 320 319 327 333 342 350 5 12 12 9 6 0 353 348 346 345 343 342 340
216 215 218 219 221 223 226 234 240 274 287 296 310 318 314 330 338 353 4 6 10 12 9 5 355 351 348 347 346 344 342 342
217 217 216 218 219 223 230 235 242 257 279 319 324 304 313 326 359 5 11 13 11 11 8 3 357 353 352 350 349 348 347 344
218 217 216 218 219 222 226 225 222 245 252 253 258 264 298 4 14 12 10 18 12 11 6 1 353 348 346 348 349 350 348 345
214 212 213 213 213 216 216 220 228 235 244 226 221 227 45 25 17 14 8 11 7 2 0 357 352 349 349 348 348 349 347 346
208 210 209 207 208 208 207 218 209 206 222 200 163 96 52 31 16 7 4 6 1 358 355 354 352 350 352 350 348 349 348 347
202 208 204 201 202 207 209 209 209 212 195 163 130 75 31 16 9 2 357 358 356 354 356 356 355 356 358 356 349 347 347 347
204 199 196 199 203 204 198 187 200 187 165 118 63 34 20 10 1 356 355 356 356 354 356 355 354 354 358 359 352 350 346 345
190 186 187 188 186 183 180 179 179 168 148 110 52 25 11 0 357 354 355 356 356 354 351 353 354 350 352 353 354 350 347 345
184 183 181 179 176 169 178 172 166 159 142 98 42 20 10 2 358 357 358 354 352 352 345 346 351 344 343 346 347 347 347 345
177 175 173 167 169 173 169 164 163 165 149 82 37 20 7 1 356 353 353 352 352 347 344 342 346 346 346 345 347 347 347 346
175 172 168 169 165 164 168 166 164 157 135 82 31 8 359 355 354 353 351 351 351 346 343 339 346 349 348 348 348 347 348 344
169 170 168 163 164 163 162 166 161 149 122 29 6 356 350 350 351 353 350 346 344 340 341 338 340 340 343 346 347 345 344 344
168 166 166 163 162 165 164 158 161 164 352 344 341 338 336 338 340 342 342 341 338 336 336 336 337 336 339 346 347 344 342 348
167 165 165 166 165 163 162 173 191 219 292 321 328 331 334 336 336 336 336 336 336 335 335 336 335 335 339 342 343 342 349 353
167 168 169 168 168 173 188 202 220 257 292 315 324 326 329 331 333 334 335 335 333 332 333 334 337 339 339 340 343 348 350 351